Home   Weather   Vaughan   Past weeks

Flag for Canada Past Weather in Vaughan, Ontario, Canada — Yesterday and Last 2 Weeks

Now
41 °F

Sprinkles. Mostly cloudy.


Feels Like: 35 °F
Forecast: 43 / 59 °F
Wind: 9 mph from Southeast

Location: Toronto Buttonville

Current Time: May 1, 2017 at 12:37:15 am

Latest Report: May 1, 2017 at 12:00 am


Visibility: 8 mi

Pressure: 29.93 "Hg

Humidity: 93%

Dew Point: 39 °F

Location of VaughanLocation

Past Weather in Vaughan — Graph

°F

Vaughan Temperature Yesterday

Maximum temperature yesterday: 46 °F (at 4:00 pm)
Minimum temperature yesterday: 37 °F (at 7:00 am)
Average temperature yesterday: 42 °F

High & Low Weather Summary for the Past Weeks

 TemperatureHumidityPressure
High77 °F (Apr 27, 4:00 pm)100% (Apr 20, 10:27 pm)30.47 "Hg (Apr 20, 10:27 pm)
Low30 °F (Apr 18, 5:00 am)24% (Apr 23, 3:00 pm)29.52 "Hg (Apr 27, 5:00 pm)
Average50 °F72%30.00 "Hg
* Reported Apr 15 11:00 pm — Apr 30 11:00 pm, Vaughan, Weather by CustomWeather, © 2017

Note: Actual official high and low records may vary slightly from our data, if they occured in-between our weather recording intervals... More about our weather records

Advertising

Vaughan Weather History for the Previous 24 Hours

Scroll right to see more
 ConditionsComfort  
Time TempWeatherWind HumidityBarometerVisibility
11:00 pm
Sun, Apr 30
43 °FSprinkles. Fog.7 mph87%29.94 "Hg6 mi
10:17 pm43 °FSprinkles. Fog.7 mph87%29.97 "Hg5 mi
10:05 pm43 °FSprinkles. Fog.6 mph87%29.96 "Hg4 mi
9:36 pm43 °FRain showers. Passing clouds.9 mph87%29.97 "Hg7 mi
9:00 pm43 °FSprinkles. Overcast.6 mph87%29.96 "Hg11 mi
8:00 pm43 °FScattered showers. Cloudy.9 mph87%29.97 "Hg15 mi
7:00 pm45 °FMostly cloudy.8 mph81%30.01 "Hg15 mi
6:45 pm45 °FSprinkles. Partly sunny.10 mph81%30.02 "Hg15 mi
6:40 pm45 °FRain showers. Mostly cloudy.8 mph81%30.03 "Hg12 mi
6:00 pm45 °FSprinkles. Mostly cloudy.13 mph81%30.03 "Hg12 mi
5:44 pm46 °FSprinkles. Overcast.5 mph66%30.06 "Hg12 mi
5:00 pm46 °FOvercast.10 mph66%30.03 "Hg15 mi
4:00 pm46 °FOvercast.18 mph66%30.05 "Hg15 mi
3:00 pm45 °FOvercast.12 mph71%30.07 "Hg15 mi
2:00 pm45 °FOvercast.16 mph66%30.11 "Hg15 mi
1:00 pm41 °FOvercast.14 mph70%30.16 "Hg15 mi
12:00 pm41 °FOvercast.13 mph66%30.19 "Hg15 mi
11:00 am39 °FOvercast.14 mph70%30.23 "Hg15 mi
10:00 am39 °FOvercast.13 mph70%30.25 "Hg15 mi
9:00 am37 °FMostly cloudy.16 mph81%30.24 "Hg15 mi
8:20 am37 °FMostly cloudy.13 mph81%30.25 "Hg15 mi
8:00 am37 °FSprinkles. Mostly cloudy.10 mph81%30.28 "Hg15 mi
7:50 am37 °FSprinkles. Mostly cloudy.9 mph81%30.28 "Hg15 mi
7:00 am37 °FSprinkles. Mostly cloudy.13 mph81%30.26 "Hg12 mi
6:45 am39 °FSprinkles. More clouds than sun.8 mph75%30.29 "Hg10 mi
6:30 am39 °FThunderstorms. Cloudy.12 mph75%30.29 "Hg7 mi
6:00 am41 °FThunderstorms. Partly cloudy.9 mph66%30.25 "Hg12 mi
5:54 am43 °FThunderstorms. Partly cloudy.5 mph57%30.29 "Hg13 mi
5:20 am43 °FPassing clouds.14 mph57%30.22 "Hg15 mi
5:00 am43 °FSprinkles. Partly cloudy.15 mph57%30.23 "Hg13 mi
4:00 am43 °FPartly cloudy.10 mph61%30.24 "Hg15 mi
3:00 am45 °FPartly cloudy.12 mph61%30.23 "Hg15 mi
2:00 am45 °FPassing clouds.8 mph61%30.26 "Hg15 mi
1:00 am45 °FPassing clouds.12 mph57%30.26 "Hg15 mi
12:00 am45 °FPassing clouds.10 mph57%30.28 "Hg15 mi
Weather by CustomWeather, © 2017

See weather overviewHow to use our weather pages